User: anonymous   Login
Location: Earls Croome
(52.0667°N, 2.2000°W)
Time: 02:44:58
(UTC+00:00)
Language:

Cosmos 2219 Rocket - Orbit

View from above orbital plane
View from above orbital plane
View from above satellite
View from above satellite

Ground track
Ground track

The orbit data is extracted from the following two-line orbital elements,

1 22220U 92076B   20018.58706400 -.00000241 +00000-0 -97103-4 0  9996
2 22220 070.9980 229.1657 0015232 271.8095 154.8413 14.16449734404311
Epoch (UTC): 18 January 2020 14:05:22
Eccentricity: 0.0015232
inclination: 70.9980°
perigee height: 826 km
apogee height: 848 km
right ascension of ascending node: 229.1657°
argument of perigee: 271.8095°
revolutions per day: 14.16449734
mean anomaly at epoch: 154.8413°
orbit number at epoch: 40431

The dashed part of the orbit path shows where the satellite is in the earth's shadow,  

DLR